Satellite: METEOR-M Catalog number: 35865 Epoch time: 11097.70963162 Element set: 258 Inclination: 098.7109 deg RA of node: 153.7287 deg Eccentricity: 0.0001862 Arg of perigee: 218.9964 deg Mean anomaly: 141.1079 deg Mean motion: 14.21834335 rev/day Decay rate: 1.76e-06 rev/day^2 Epoch rev: 8057 Checksum: 318
Satellite: RS-38 Catalog number: 35869 Epoch time: 11097.71823386 Element set: 265 Inclination: 098.7100 deg RA of node: 153.7767 deg Eccentricity: 0.0003985 Arg of perigee: 228.4938 deg Mean anomaly: 131.5889 deg Mean motion: 14.22003542 rev/day Decay rate: 1.77e-06 rev/day^2 Epoch rev: 8058 Checksum: 337
/EX
participants (1)
-
Ray Hoad